Weather History for Shreveport Downtown, LA

Change the Weather History Date:

Saturday, November 17, 2012

  Actual Average (KSHV) Record (KSHV)
Temperature  
Mean Temperature 49 °F 56 °F  
Max Temperature 66 °F 67 °F 84 °F (1938)
Min Temperature 32 °F 45 °F 25 °F (1880)
Degree Days  
Heating Degree Days 16 10  
Month to date heating degree days 129  
Since 1 July heating degree days 215  
Cooling Degree Days 0 1  
Month to date cooling degree days 21  
Year to date cooling degree days 2470  
Moisture  
Dew Point 36 °F    
Average Humidity 70    
Maximum Humidity 100    
Minimum Humidity 28    
Precipitation  
Precipitation 0.00 in 0.15 in 4.64 in (1969)
Month to date precipitation 2.62  
Year to date precipitation 44.73  
Snow  
Snow 0.00 in - - ()
Month to date snowfall  
Since 1 July snowfall  
Since 1 September snowfall  
Snow Depth -    
Sea Level Pressure  
Sea Level Pressure 30.37 in    
Wind  
Wind Speed 1 mph (North)    
Max Wind Speed 8 mph    
Max Gust Speed -    
Visibility 10 miles    
Events      
T = Trace of Precipitation, MM = Missing Value Source: NWS Daily Summary

Daily Weather History Graph

Daily Weather History Graph

Search for Another Location

Airport:

Trip Planner

Search our weather history database for the weather conditions in past years. The results will help you decide how hot, cold, wet, or windy it might be!

Date:

Astronomy

Nov. 17, 2012 Rise Set
Actual Time 6:46 AM CST 5:12 PM CST
Civil Twilight 6:20 AM CST 5:39 PM CST
Nautical Twilight 5:50 AM CST 6:08 PM CST
Astronomical Twilight 5:21 AM CST 6:38 PM CST
Moon 10:32 AM CST (11/17) 9:22 PM CST (11/17)
Length of Visible Light 11h 18m
Length of Day
10h 25m
Waxing Crescent, 20% of the Moon is Illuminated
Nov 17
Waxing Crescent
Nov 20
First Quarter
Nov 28
Full
Dec 6
Last Quarter
Dec 13
New

Hourly Weather History & Observations

Time (CST) Temp. Dew Point Humidity Pressure Visibility Wind Dir Wind Speed Gust Speed Precip Events Conditions
12:53 AM 39.0 °F 36.0 °F 89% 30.38 in 10.0 mi Calm Calm - N/A   Clear
1:53 AM 36.0 °F 35.1 °F 97% 30.38 in 10.0 mi Calm Calm - N/A   Clear
2:53 AM 36.0 °F 34.0 °F 93% 30.38 in 10.0 mi Calm Calm - N/A   Clear
3:53 AM 36.0 °F 34.0 °F 93% 30.38 in 10.0 mi Calm Calm - N/A   Clear
4:53 AM 34.0 °F 33.1 °F 96% 30.38 in 7.0 mi Calm Calm - N/A   Clear
5:53 AM 34.0 °F 33.1 °F 96% 30.38 in 9.0 mi Calm Calm - N/A   Clear
6:53 AM 32.0 °F 32.0 °F 100% 30.40 in 7.0 mi Calm Calm - N/A   Clear
7:53 AM 37.0 °F 34.0 °F 89% 30.42 in 10.0 mi Calm Calm - N/A   Clear
8:53 AM 45.0 °F 36.0 °F 71% 30.43 in 10.0 mi Calm Calm - N/A   Clear
9:53 AM 51.1 °F 36.0 °F 56% 30.43 in 10.0 mi NE 3.5 mph - N/A   Clear
10:53 AM 55.0 °F 36.0 °F 49% 30.44 in 10.0 mi Calm Calm - N/A   Clear
11:53 AM 60.1 °F 35.1 °F 39% 30.40 in 10.0 mi Calm Calm - N/A   Clear
12:53 PM 63.0 °F 35.1 °F 35% 30.37 in 10.0 mi North 4.6 mph - N/A   Clear
1:53 PM 64.9 °F 34.0 °F 32% 30.34 in 10.0 mi North 5.8 mph - N/A   Clear
2:53 PM 66.9 °F 34.0 °F 30% 30.32 in 9.0 mi NNW 8.1 mph - N/A   Clear
3:53 PM 64.9 °F 30.9 °F 28% 30.32 in 10.0 mi Calm Calm - N/A   Clear
4:53 PM 63.0 °F 35.1 °F 35% 30.32 in 10.0 mi Calm Calm - N/A   Clear
5:53 PM 53.1 °F 37.0 °F 55% 30.32 in 10.0 mi Calm Calm - N/A   Clear
6:53 PM 50.0 °F 39.9 °F 68% 30.32 in 10.0 mi Calm Calm - N/A   Clear
7:53 PM 43.0 °F 39.9 °F 89% 30.34 in 10.0 mi Calm Calm - N/A   Clear
8:53 PM 45.0 °F 39.9 °F 82% 30.34 in 10.0 mi Calm Calm - N/A   Clear
9:53 PM 43.0 °F 37.9 °F 82% 30.35 in 10.0 mi Calm Calm - N/A   Clear
10:53 PM 41.0 °F 39.0 °F 93% 30.35 in 10.0 mi Calm Calm - N/A   Clear
11:53 PM 39.9 °F 37.0 °F 89% 30.35 in 10.0 mi Calm Calm - N/A   Clear